Shelbyville, IN

7:45 PM EST on November 14, 2019 (GMT -0500)
Shelbyville Municipal

Weather History for KGEZ - September, 2019

Change the Weather History Date:

Sunday, September 15, 2019

  Actual Average Record
Temperature  
Mean Temperature 70 °F 66 °F  
Max Temperature 82 °F 79 °F 91 °F (2018)
Min Temperature 58 °F 53 °F 0 °F (2012)
Degree Days  
Heating Degree Days 0 2  
Month to date heating degree days 0 15  
Since 1 July heating degree days 0 21  
Cooling Degree Days 5 3  
Month to date cooling degree days 109 65  
Year to date cooling degree days 1170 871  
Growing Degree Days 20 (Base 50)    
Moisture  
Dew Point 57 °F    
Average Humidity 69    
Maximum Humidity 93    
Minimum Humidity 45    
Precipitation  
Precipitation 0.00 in 0.11 in 0.51 in (2014)
Month to date precipitation 0.52 1.65  
Year to date precipitation 31.98 31.93  
Sea Level Pressure  
Sea Level Pressure 30.14 in    
Wind  
Wind Speed 5 mph (SSE)    
Max Wind Speed 14 mph    
Max Gust Speed 18 mph    
Visibility 10 miles    
Events      
T = Trace of Precipitation, MM = Missing Value Source: NWS Daily Summary

Daily Weather History Graph

Daily Weather History Graph

Search for Another Location

Airport or City:

Astronomy

Sep. 15, 2019 Rise Set
Actual Time 7:24 AM EDT 7:52 PM EDT
Civil Twilight 6:57 AM EDT 8:19 PM EDT
Nautical Twilight 6:25 AM EDT 8:50 PM EDT
Astronomical Twilight 5:52 AM EDT 9:23 PM EDT
Moon 8:59 PM EDT 8:33 AM EDT
Length of Visible Light 13h 21m
Length of Day
12h 27m
Full, 98% of the Moon is Illuminated
Sep 15
Full
Sep 21
Last Quarter
Sep 28
New
Oct 5
First Quarter
Oct 13
Full

Hourly Weather History & Observations

Time (EDT) Temp. Heat Index Dew Point Humidity Pressure Visibility Wind Dir Wind Speed Gust Speed Precip Events Conditions
12:53 AM 61.0 °F - 57.0 °F 87% 30.21 in 10.0 mi Calm Calm - N/A   Clear
1:53 AM 62.1 °F - 57.0 °F 84% 30.20 in 10.0 mi SE 4.6 mph - N/A   Clear
2:53 AM 60.1 °F - 55.9 °F 86% 30.19 in 10.0 mi Calm Calm - N/A   Clear
3:53 AM 57.9 °F - 55.0 °F 90% 30.17 in 10.0 mi SSE 3.5 mph - N/A   Clear
4:53 AM 57.9 °F - 54.0 °F 87% 30.16 in 10.0 mi SE 3.5 mph - N/A   Clear
5:53 AM 59.0 °F - 55.0 °F 87% 30.16 in 10.0 mi South 3.5 mph - N/A   Clear
6:53 AM 57.9 °F - 54.0 °F 87% 30.16 in 10.0 mi Calm Calm - N/A   Clear
7:53 AM 59.0 °F - 54.0 °F 83% 30.17 in 10.0 mi South 3.5 mph - N/A   Clear
8:53 AM 66.0 °F - 57.0 °F 73% 30.18 in 10.0 mi South 6.9 mph - N/A   Clear
9:53 AM 68.0 °F - 57.0 °F 68% 30.19 in 10.0 mi South 5.8 mph - N/A   Clear
10:53 AM 73.0 °F - 55.9 °F 55% 30.18 in 10.0 mi South 11.5 mph - N/A   Clear
11:53 AM 77.0 °F - 57.0 °F 50% 30.19 in 10.0 mi South 10.4 mph - N/A   Scattered Clouds
12:53 PM 77.0 °F - 55.9 °F 48% 30.20 in 10.0 mi West 9.2 mph - N/A   Clear
1:53 PM 77.0 °F - 55.0 °F 47% 30.15 in 10.0 mi Calm Calm - N/A   Clear
2:53 PM 78.1 °F - 55.9 °F 46% 30.11 in 10.0 mi South 5.8 mph - N/A   Clear
3:53 PM 80.1 °F 80.7 °F 59.0 °F 48% 30.09 in 10.0 mi SE 3.5 mph - N/A   Clear
4:53 PM 82.0 °F 82.4 °F 60.1 °F 47% 30.06 in 10.0 mi SE 6.9 mph - N/A   Clear
5:53 PM 81.0 °F 81.3 °F 59.0 °F 47% 30.06 in 10.0 mi SSW 4.6 mph - N/A   Clear
6:53 PM 79.0 °F - 64.0 °F 60% 30.06 in 10.0 mi ESE 3.5 mph - N/A   Clear
7:53 PM 73.9 °F - 62.1 °F 66% 30.05 in 10.0 mi SE 4.6 mph - N/A   Clear
10:53 PM 71.1 °F - 59.0 °F 66% 30.06 in 10.0 mi South 6.9 mph - N/A   Clear
11:53 PM 71.1 °F - 59.0 °F 66% 30.05 in 10.0 mi South 5.8 mph - N/A   Scattered Clouds